This demonstration page uses our WeatherBlox Daily Observations layout. Learn more.

Left ArrowRight Arrow

41.12389, -100.76542

Hourly Observations for May 19, 2022

Temp ( °F °C ) Dew Point ( °F °C ) Humidity (%) Winds ( mph kmh ) Pressure ( in mb ) Visibility ( mi km ) Precip ( " mm )
12:53 am 00:53 Clear 70 21.1 52 11.1 53 53 S 13 20 29.65 1004 10 16 0.00 0.00
1:53 am 01:53 Clear 68 20 52 11.1 57 57 S 12 19 29.63 1004 10 16 0.00 0.00
2:53 am 02:53 Clear 69 20.6 45 7.2 42 42 SW 13 20 29.60 1002 10 16 0.00 0.00
3:53 am 03:53 Clear 66 18.9 46 7.8 49 49 WSW 9 15 29.57 1002 10 16 0.00 0.00
4:53 am 04:53 Clear 63 17.2 47 8.3 56 56 SW 8 13 29.54 1001 10 16 0.00 0.00
5:53 am 05:53 Clear 62 16.7 47 8.3 58 58 SSW 9 15 29.53 1000 10 16 0.00 0.00
6:53 am 06:53 Sunny 63 17.2 49 9.4 60 60 SSW 15 24 29.53 1000 10 16 0.00 0.00
7:53 am 07:53 Sunny 65 18.3 50 10 59 59 SW 14 22 29.51 999 10 16 0.00 0.00
8:53 am 08:53 Sunny 69 20.6 51 10.6 53 53 WSW 12 19 29.48 998 10 16 0.00 0.00
9:53 am 09:53 Sunny 74 23.3 52 11.1 46 46 WSW 8 13 29.47 998 10 16 0.00 0.00
10:53 am 10:53 Sunny 78 25.6 52 11.1 40 40 W 14 22 29.44 997 10 16 0.00 0.00
11:53 am 11:53 Sunny 85 29.4 49 9.4 29 29 W 10 17 29.39 995 10 16 0.00 0.00
12:53 pm 12:53 Sunny 89 31.7 37 2.8 16 16 W 21 33 29.36 994 10 16 0.00 0.00
1:53 pm 13:53 Sunny 84 28.9 41 5 22 22 NW 18 30 29.34 994 10 16 0.00 0.00
2:53 pm 14:53 Sunny 86 30 44 6.7 23 23 WNW 14 22 29.29 992 10 16 0.00 0.00
3:53 pm 15:53 Sunny 91 32.8 39 3.9 16 16 WSW 16 26 29.26 991 10 16 0.00 0.00
4:53 pm 16:53 Sunny 89 31.7 40 4.4 18 18 WSW 12 19 29.24 990 10 16 0.00 0.00
5:53 pm 17:53 Sunny 91 32.8 40 4.4 17 17 S 13 20 29.20 989 10 16 0.00 0.00
6:37 pm 18:37 Sunny 74 23.3 46 7.8 37 37 N 28 44 29.22 990 10 16 0.00 0.00
6:53 pm 18:53 Sunny 72 22.2 46 7.8 40 40 N 26 43 29.29 992 10 16 0.00 0.00
7:53 pm 19:53 Sunny 62 16.7 42 5.6 48 48 NNE 25 41 29.35 994 10 16 0.00 0.00
8:53 pm 20:53 Sunny 57 13.9 38 3.3 49 49 N 20 31 29.41 996 10 16 0.00 0.00
9:53 pm 21:53 Clear 53 11.7 34 1.1 48 48 N 25 41 29.45 997 10 16 0.00 0.00
10:53 pm 22:53 Clear 52 11.1 32 0 47 47 N 21 33 29.49 999 10 16 0.00 0.00
11:53 pm 23:53 Clear 50 10 34 1.1 54 54 NNW 17 28 29.50 999 10 16 0.00 0.00

Powered by AerisWeather